Zurück zum Katalog

STARLINK-32437

AktivKommunikationVLEO
NORAD 63001·PAYLOAD·🇺🇸 United States

Gestartet Feb 11, 2025 von Cape Canaveral Space Force Station

Loading…

Nächste Überflüge (nächste 24 Stunden)

TLE

AktuellSource: CelesTrak SupGP

Epoche: Sep 15, 2026, 02:33 UTC

1 63001C 25031W   26258.10673611  .00016925  00000+0  61311-3 0  2584
2 63001  42.9993 154.0457 0001343 274.4008 280.1199 15.27564456    16

Verfolge STARLINK-32437 in Echtzeit mit AllMySat

Download on the App Store